FW5295 Weather Reports


Display with metric or nautical units.
time (UTC)temp
F
wind
direction
speed
MPH
gust
MPH
rain 1hr
in
rain 24hr
in
rain mn
in
humidity
%
barometer
mb
20260509222442 70 345 2.0 12.0 0.00 0.00 0.00 36 1004.6
20260509221938 70 321 5.0 12.0 0.00 0.00 0.00 36 1004.6
20260509221439 70 279 3.0 10.0 0.00 0.00 0.00 35 1004.6
20260509220940 70 333 5.0 10.0 0.00 0.00 0.00 36 1004.6
20260509220437 71 310 6.0 9.0 0.00 0.00 0.00 35 1004.6
20260509215936 71 328 3.0 10.0 0.00 0.00 0.00 36 1004.6
20260509215437 71 48 7.0 10.0 0.00 0.00 0.00 37 1004.2
20260509215204 71 235 7.0 10.0 0.00 0.00 0.00 35 1004.2
20260509214435 71 343 4.0 10.0 0.00 0.00 0.00 33 1004.2
20260509213936 72 228 3.0 10.0 0.00 0.00 0.00 35 1004.2
20260509213435 71 331 2.0 10.0 0.00 0.00 0.00 34 1003.9
20260509212933 71 266 4.0 15.0 0.00 0.00 0.00 36 1003.9
20260509212434 71 244 5.0 15.0 0.00 0.00 0.00 34 1004.2
20260509211933 72 304 4.0 13.0 0.00 0.00 0.00 33 1003.9
20260509211919 72 248 4.0 13.0 0.00 0.00 0.00 31 1003.9
20260509210932 72 269 2.0 15.0 0.00 0.00 0.00 30 1003.9
20260509210430 72 306 4.0 15.0 0.00 0.00 0.00 32 1003.9
20260509205931 72 264 7.0 13.0 0.00 0.00 0.00 33 1003.5
20260509205431 73 317 7.0 10.0 0.00 0.00 0.00 32 1003.5
20260509204928 72 318 4.0 12.0 0.00 0.00 0.00 34 1003.5
20260509204649 72 359 3.0 12.0 0.00 0.00 0.00 31 1003.5
20260509203928 73 311 4.0 12.0 0.00 0.00 0.00 36 1003.5
20260509203427 72 296 5.0 12.0 0.00 0.00 0.00 34 1003.5
20260509202928 72 272 4.0 12.0 0.00 0.00 0.00 34 1003.5
20260509202427 72 265 3.0 14.0 0.00 0.00 0.00 33 1003.5
20260509201927 73 203 6.0 14.0 0.00 0.00 0.00 33 1003.5
20260509201426 73 235 6.0 14.0 0.00 0.00 0.00 34 1003.5
20260509200924 72 261 11.0 15.0 0.00 0.00 0.00 32 1003.5
20260509200424 72 259 5.0 17.0 0.00 0.00 0.00 35 1003.5
20260509195924 72 255 5.0 17.0 0.00 0.00 0.00 36 1003.5
20260509195422 73 269 7.0 12.0 0.00 0.00 0.00 34 1003.5
20260509194923 73 203 4.0 12.0 0.00 0.00 0.00 35 1003.5
20260509194421 73 240 4.0 14.0 0.00 0.00 0.00 35 1003.5
20260509194140 73 195 4.0 14.0 0.00 0.00 0.00 34 1003.5
20260509193422 72 300 3.0 10.0 0.00 0.00 0.00 34 1003.5
20260509192932 71 317 2.0 14.0 0.00 0.00 0.00 35 1003.5
20260509192922 71 234 3.0 10.0 0.00 0.00 0.00 34 1003.5
20260509191920 70 258 11.0 17.0 0.00 0.00 0.00 34 1003.5
20260509191418 69 253 4.0 16.0 0.00 0.00 0.00 36 1003.5
20260509190921 70 302 3.0 16.0 0.00 0.00 0.00 35 1003.5
20260509190420 70 238 2.0 16.0 0.00 0.00 0.00 35 1003.5
20260509185919 70 253 4.0 17.0 0.00 0.00 0.00 34 1003.5
20260509185655 70 245 3.0 17.0 0.00 0.00 0.00 33 1003.5
20260509184916 70 278 6.0 17.0 0.00 0.00 0.00 35 1003.5
20260509184635 70 266 5.0 13.0 0.00 0.00 0.00 34 1003.5
20260509183915 70 259 6.0 16.0 0.00 0.00 0.00 33 1003.5
20260509183418 70 268 4.0 25.0 0.00 0.00 0.00 34 1003.2
20260509183131 71 263 5.0 25.0 0.00 0.00 0.00 33 1003.2
20260509182414 71 234 9.0 12.0 0.00 0.00 0.00 33 1003.5
20260509181913 71 222 5.0 12.0 0.00 0.00 0.00 33 1003.5
20260509181413 69 295 6.0 10.0 0.00 0.00 0.00 35 1003.2
20260509180912 69 258 1.0 9.0 0.00 0.00 0.00 36 1003.2
20260509180411 69 318 3.0 9.0 0.00 0.00 0.00 35 1003.5
20260509175913 69 264 4.0 11.0 0.00 0.00 0.00 36 1003.5
20260509175629 69 265 2.0 11.0 0.00 0.00 0.00 33 1003.5
20260509174909 69 290 2.0 7.0 0.00 0.00 0.00 34 1003.5
20260509174635 69 259 3.0 13.0 0.00 0.00 0.00 34 1003.9
20260509173909 69 260 2.0 13.0 0.00 0.00 0.00 34 1003.9
20260509173411 69 224 3.0 8.0 0.00 0.00 0.00 35 1003.5
20260509172908 69 233 6.0 13.0 0.00 0.00 0.00 36 1003.9
20260509172410 69 247 10.0 13.0 0.00 0.00 0.00 35 1003.5
20260509172357 69 328 2.0 10.0 0.00 0.00 0.00 36 1003.9
20260509171406 69 262 6.0 10.0 0.00 0.00 0.00 35 1003.5
20260509170908 69 215 3.0 9.0 0.00 0.00 0.00 34 1003.9
20260509170404 69 341 4.0 11.0 0.00 0.00 0.00 36 1003.9
20260509165906 69 231 6.0 11.0 0.00 0.00 0.00 34 1003.9
20260509165404 69 309 5.0 11.0 0.00 0.00 0.00 36 1003.9
20260509164903 69 58 3.0 11.0 0.00 0.00 0.00 39 1003.9
20260509164630 68 265 4.0 11.0 0.00 0.00 0.00 39 1003.5
20260509163905 68 294 6.0 11.0 0.00 0.00 0.00 40 1003.9
20260509163402 68 242 4.0 7.0 0.00 0.00 0.00 42 1003.9
20260509163123 68 313 4.0 8.0 0.00 0.00 0.00 41 1003.9
20260509162622 68 335 7.0 8.0 0.00 0.00 0.00 42 1003.5
20260509161901 68 274 3.0 9.0 0.00 0.00 0.00 44 1003.5
20260509161400 67 326 3.0 9.0 0.00 0.00 0.00 43 1003.5
20260509161119 67 311 5.0 9.0 0.00 0.00 0.00 48 1003.9
20260509160400 67 220 4.0 9.0 0.00 0.00 0.00 46 1003.5
20260509160126 67 302 4.0 6.0 0.00 0.00 0.00 46 1003.5
20260509155357 66 242 3.0 6.0 0.00 0.00 0.00 47 1003.5
20260509154857 66 229 4.0 9.0 0.00 0.00 0.00 46 1003.9
20260509154358 66 356 3.0 12.0 0.00 0.00 0.00 49 1003.5
20260509153856 66 205 4.0 12.0 0.00 0.00 0.00 49 1003.5
20260509153616 66 298 5.0 7.0 0.00 0.00 0.00 48 1003.5
20260509152946 65 218 2.0 8.0 0.00 0.00 0.00 56 1003.5
20260509152856 66 242 5.0 7.0 0.00 0.00 0.00 53 1003.5
20260509152357 65 220 4.0 6.0 0.00 0.00 0.00 52 1003.5
20260509152120 65 288 5.0 6.0 0.00 0.00 0.00 51 1003.5
20260509150853 64 267 3.0 9.0 0.00 0.00 0.00 58 1003.5
20260509150353 64 200 2.0 9.0 0.00 0.00 0.00 57 1003.5
20260509145854 64 209 4.0 7.0 0.00 0.00 0.00 58 1003.5
20260509145352 64 276 2.0 7.0 0.00 0.00 0.00 56 1003.5
20260509144351 62 209 5.0 8.0 0.00 0.00 0.00 62 1003.5
20260509143849 62 238 4.0 7.0 0.00 0.00 0.00 64 1003.5
20260509143350 62 291 3.0 9.0 0.00 0.00 0.00 66 1003.5
20260509142849 61 205 2.0 9.0 0.00 0.00 0.00 67 1003.5
20260509142348 61 252 6.0 8.0 0.00 0.00 0.00 68 1003.5
20260509141848 60 216 4.0 5.0 0.00 0.00 0.00 71 1003.5
20260509141346 60 218 4.0 12.0 0.00 0.00 0.00 71 1003.5
20260509141106 60 241 1.0 12.0 0.00 0.00 0.00 72 1003.5
20260509140348 59 248 0.0 8.0 0.00 0.00 0.00 73 1003.5
20260509135845 59 229 5.0 8.0 0.00 0.00 0.00 74 1003.5
20260509135344 59 284 3.0 10.0 0.00 0.00 0.00 75 1003.5
20260509134847 59 235 7.0 10.0 0.00 0.00 0.00 77 1003.2
20260509134343 58 205 2.0 9.0 0.00 0.00 0.00 78 1003.5
20260509133843 58 238 4.0 8.0 0.00 0.00 0.00 78 1003.2
20260509133344 58 236 3.0 8.0 0.00 0.00 0.00 78 1003.2
20260509133320 57 342 0.0 8.0 0.00 0.00 0.00 79 1003.2
20260509132613 57 125 2.0 8.0 0.00 0.00 0.00 81 1003.2
20260509132109 56 151 2.0 5.0 0.00 0.00 0.00 83 1003.2
20260509131341 56 224 2.0 5.0 0.00 0.00 0.00 84 1003.2
20260509130842 55 218 3.0 5.0 0.00 0.00 0.00 86 1003.2
20260509130352 55 255 3.0 5.0 0.00 0.00 0.00 88 1003.2
20260509125840 54 274 0.0 5.0 0.00 0.00 0.00 89 1003.2
20260509125338 54 227 3.0 5.0 0.00 0.00 0.00 90 1003.5
20260509125316 53 165 4.0 8.0 0.00 0.00 0.00 91 1003.5
20260509124337 53 180 2.0 8.0 0.00 0.00 0.00 92 1003.5
20260509123839 53 207 1.0 6.0 0.00 0.00 0.00 93 1003.5
20260509123338 52 221 4.0 6.0 0.00 0.00 0.00 94 1003.2
20260509122837 52 196 2.0 5.0 0.00 0.00 0.00 95 1003.2
20260509122335 51 245 5.0 5.0 0.00 0.00 0.00 95 1003.2
20260509121835 51 199 2.0 5.0 0.00 0.00 0.00 96 1003.5
20260509121820 51 244 3.0 6.0 0.00 0.00 0.00 96 1003.5
20260509120835 51 238 0.0 6.0 0.00 0.00 0.00 96 1003.2
20260509120334 51 247 3.0 10.0 0.00 0.00 0.00 96 1003.2
20260509115833 50 237 5.0 10.0 0.00 0.00 0.00 96 1003.2
20260509115558 50 223 3.0 7.0 0.00 0.00 0.00 97 1003.5
20260509114834 50 226 2.0 7.0 0.00 0.00 0.00 97 1003.2
20260509114336 50 251 2.0 6.0 0.00 0.00 0.00 97 1003.2
20260509114049 50 226 1.0 6.0 0.00 0.00 0.00 96 1003.2
20260509113330 50 203 1.0 5.0 0.00 0.00 0.00 96 1002.9
20260509112830 49 225 3.0 5.0 0.00 0.00 0.00 96 1003.2
20260509112331 50 254 1.0 6.0 0.00 0.00 0.00 96 1002.9
20260509111830 50 231 2.0 6.0 0.00 0.00 0.00 96 1002.9
20260509111328 50 208 1.0 6.0 0.00 0.00 0.00 96 1002.9
20260509110828 50 201 0.0 6.0 0.00 0.00 0.00 96 1002.9
20260509110342 50 256 2.0 7.0 0.00 0.00 0.00 96 1002.9
20260509110048 50 213 2.0 7.0 0.00 0.00 0.00 96 1002.9
20260509105326 50 219 2.0 5.0 0.00 0.00 0.00 96 1002.5
20260509104825 50 204 4.0 6.0 0.00 0.00 0.00 95 1002.5
20260509104325 50 211 4.0 6.0 0.00 0.00 0.00 95 1002.5
20260509103825 50 226 3.0 7.0 0.00 0.00 0.00 95 1002.5
20260509103325 51 226 2.0 8.0 0.00 0.00 0.00 95 1002.5
20260509102825 51 205 3.0 8.0 0.00 0.00 0.00 95 1002.9
20260509102323 51 239 1.0 7.0 0.00 0.00 0.00 95 1002.9
20260509102043 51 248 5.0 7.0 0.00 0.00 0.00 95 1002.9
20260509101806 51 215 4.0 6.0 0.00 0.00 0.00 94 1002.9
20260509100822 51 244 3.0 6.0 0.00 0.00 0.00 94 1002.9
20260509100320 51 229 4.0 6.0 0.00 0.00 0.00 94 1002.9
20260509095820 51 227 3.0 5.0 0.00 0.00 0.00 94 1002.9
20260509095320 51 223 2.0 5.0 0.00 0.00 0.00 94 1002.5
20260509095047 51 212 4.0 7.0 0.00 0.00 0.00 94 1002.2
20260509094318 51 214 4.0 7.0 0.00 0.00 0.00 94 1002.5
20260509094044 51 223 2.0 5.0 0.00 0.00 0.00 94 1002.5
20260509093318 51 217 3.0 6.0 0.00 0.00 0.00 94 1002.5
20260509092818 51 224 2.0 6.0 0.00 0.00 0.00 94 1002.5
20260509092318 51 234 4.0 5.0 0.00 0.00 0.00 95 1002.5
20260509092043 51 223 4.0 6.0 0.00 0.00 0.00 95 1002.9
20260509091317 50 189 2.0 6.0 0.00 0.00 0.00 95 1002.9
20260509090815 50 213 3.0 7.0 0.00 0.00 0.00 95 1002.9
20260509090316 50 203 3.0 7.0 0.00 0.00 0.00 95 1003.2
20260509085814 50 256 2.0 6.0 0.00 0.00 0.00 94 1003.2
20260509085544 51 247 3.0 6.0 0.00 0.00 0.00 94 1003.2
20260509084813 51 236 2.0 9.0 0.00 0.00 0.00 94 1003.2
20260509084314 51 231 4.0 9.0 0.00 0.00 0.00 94 1003.2
20260509083812 51 207 3.0 6.0 0.00 0.00 0.00 94 1003.5
20260509083313 50 209 4.0 6.0 0.00 0.00 0.00 94 1003.2
20260509083037 50 237 2.0 5.0 0.00 0.00 0.00 94 1003.2
20260509082312 50 242 2.0 5.0 0.00 0.00 0.00 93 1003.2
20260509082031 50 252 2.0 4.0 0.00 0.00 0.00 93 1003.2
20260509081309 50 180 2.0 4.0 0.00 0.00 0.00 93 1003.2
20260509080810 50 215 0.0 4.0 0.00 0.00 0.00 93 1003.2
20260509080309 50 194 4.0 4.0 0.00 0.00 0.00 93 1003.2
20260509075807 50 149 1.0 3.0 0.00 0.00 0.00 93 1003.2
20260509075533 50 180 3.0 3.0 0.00 0.00 0.00 93 1003.2
20260509075026 50 222 2.0 4.0 0.00 0.00 0.00 92 1003.5
20260509074307 50 192 0.0 4.0 0.00 0.00 0.00 92 1003.2
20260509073807 50 165 2.0 4.0 0.00 0.00 0.00 92 1003.2
20260509073307 50 161 3.0 4.0 0.00 0.00 0.00 92 1003.5
20260509072804 50 184 1.0 4.0 0.00 0.00 0.00 92 1003.5
20260509072529 51 223 2.0 3.0 0.00 0.00 0.00 91 1003.2
20260509071803 51 196 2.0 3.0 0.00 0.00 0.00 91 1003.5
20260509071304 51 170 2.0 3.0 0.00 0.00 0.00 91 1003.5
20260509070807 51 197 2.0 6.0 0.00 0.00 0.00 91 1003.5
20260509070303 51 211 2.0 6.0 0.00 0.00 0.00 91 1003.9
20260509065804 51 241 0.0 6.0 0.00 0.00 0.00 90 1003.5
20260509065305 51 165 2.0 6.0 0.00 0.00 0.00 90 1003.9
20260509064801 51 205 3.0 5.0 0.00 0.00 0.00 90 1003.9
20260509064301 52 208 1.0 5.0 0.00 0.00 0.00 90 1004.2
20260509063803 52 213 2.0 4.0 0.00 0.00 0.00 90 1004.2
20260509063300 52 269 0.0 5.0 0.00 0.00 0.00 90 1004.2
20260509063016 52 217 1.0 5.0 0.00 0.00 0.00 90 1004.6
20260509062257 52 239 3.0 9.0 0.00 0.00 0.00 89 1004.6
20260509061758 52 228 3.0 9.0 0.00 0.00 0.00 89 1004.6
20260509061258 53 209 2.0 5.0 0.00 0.00 0.00 89 1004.2
20260509060756 53 228 2.0 5.0 0.00 0.00 0.00 89 1004.2
20260509060258 53 221 3.0 4.0 0.00 0.00 0.00 89 1004.6
20260509055755 53 178 2.0 8.0 0.00 0.00 0.00 89 1004.6
20260509055522 53 211 2.0 8.0 0.00 0.00 0.00 88 1004.6
20260509054754 53 212 3.0 5.0 0.00 0.00 0.00 88 1004.6
20260509054255 53 213 2.0 6.0 0.00 0.00 0.00 88 1004.6
20260509053753 53 229 5.0 6.0 0.00 0.00 0.00 87 1004.9
20260509053253 53 183 2.0 6.0 0.00 0.00 0.00 87 1004.9
20260509052752 54 186 2.0 6.0 0.00 0.00 0.00 87 1004.6
20260509052252 54 210 2.0 5.0 0.00 0.00 0.00 87 1004.6
20260509051753 54 188 2.0 5.0 0.00 0.00 0.00 86 1004.6
20260509051255 54 223 3.0 6.0 0.00 0.00 0.00 86 1004.6
20260509050749 54 190 2.0 6.0 0.00 0.00 0.00 85 1004.6
20260509050251 54 195 3.0 6.0 0.00 0.00 0.00 85 1004.9
20260509045752 54 232 6.0 6.0 0.00 0.00 0.00 84 1004.6
20260509045249 54 192 2.0 6.0 0.00 0.00 0.00 84 1004.6
20260509045017 55 220 3.0 6.0 0.00 0.00 0.00 83 1004.6
20260509044251 55 206 4.0 5.0 0.00 0.00 0.00 82 1004.6
20260509043747 55 220 4.0 6.0 0.00 0.00 0.00 82 1004.6
20260509043247 55 178 0.0 6.0 0.00 0.00 0.00 81 1004.6
20260509043012 55 185 2.0 5.0 0.00 0.00 0.00 80 1004.6
20260509042245 55 183 3.0 5.0 0.00 0.00 0.00 79 1004.6
20260509041747 55 200 2.0 5.0 0.00 0.00 0.00 79 1004.6
20260509041602 55 194 2.0 7.0 0.00 0.00 0.00 78 1004.6
20260509041459 56 210 3.0 7.0 0.00 0.00 0.00 78 1004.6
20260509040245 56 196 3.0 6.0 0.00 0.00 0.00 77 1004.6
20260509035743 56 202 2.0 6.0 0.00 0.00 0.00 76 1004.6
20260509035242 56 207 3.0 5.0 0.00 0.00 0.00 76 1004.9
20260509034743 56 225 2.0 6.0 0.00 0.00 0.00 75 1004.9
20260509034501 56 212 5.0 6.0 0.00 0.00 0.00 75 1004.9
20260509034354 56 232 4.0 6.0 0.00 0.00 0.00 75 1004.9
20260509033501 57 193 2.0 7.0 0.00 0.00 0.00 74 1004.9
20260509032741 57 221 2.0 7.0 0.00 0.00 0.00 74 1004.9
20260509032239 57 231 2.0 7.0 0.00 0.00 0.00 73 1004.9
20260509031741 57 187 2.0 5.0 0.00 0.00 0.00 72 1004.9
20260509031238 57 227 4.0 5.0 0.00 0.00 0.00 71 1004.9
20260509030739 58 217 2.0 8.0 0.00 0.00 0.00 70 1004.9
20260509030238 58 199 2.0 8.0 0.00 0.00 0.00 69 1004.9
20260509025737 58 225 4.0 6.0 0.00 0.00 0.00 68 1004.9
20260509025237 58 193 3.0 6.0 0.00 0.00 0.00 66 1004.9
20260509024736 58 208 2.0 5.0 0.00 0.00 0.00 64 1004.9
20260509024237 58 189 2.0 4.0 0.00 0.00 0.00 63 1004.9
20260509023735 58 207 2.0 4.0 0.00 0.00 0.00 62 1004.9
20260509023234 58 190 2.0 4.0 0.00 0.00 0.00 62 1004.9
20260509022736 58 211 2.0 4.0 0.00 0.00 0.00 62 1004.9
20260509022234 58 202 1.0 3.0 0.00 0.00 0.00 62 1004.9
20260509021734 58 224 3.0 3.0 0.00 0.00 0.00 62 1004.9
20260509021232 58 191 2.0 3.0 0.00 0.00 0.00 62 1004.9
20260509020732 58 165 0.0 2.0 0.00 0.00 0.00 62 1004.9
20260509020451 58 201 2.0 2.0 0.00 0.00 0.00 63 1004.6
20260509015732 58 180 0.0 2.0 0.00 0.00 0.00 62 1004.6
20260509015450 59 186 1.0 2.0 0.00 0.00 0.00 61 1004.6
20260509014731 59 195 1.0 2.0 0.00 0.00 0.00 62 1004.9
20260509014716 59 162 1.0 2.0 0.00 0.00 0.00 62 1004.9
20260509014342 59 224 1.0 2.0 0.00 0.00 0.00 61 1004.6
20260509013449 59 179 1.0 2.0 0.00 0.00 0.00 60 1004.6
20260509012729 60 202 0.0 2.0 0.00 0.00 0.00 60 1004.6
20260509012228 60 89 0.0 2.0 0.00 0.00 0.00 59 1004.6
20260509011726 61 173 2.0 3.0 0.00 0.00 0.00 59 1004.9
20260509011228 61 218 2.0 3.0 0.00 0.00 0.00 58 1004.6
20260509010727 61 207 2.0 3.0 0.00 0.00 0.00 58 1004.6
20260509010225 62 206 2.0 4.0 0.00 0.00 0.00 58 1004.6
20260509005725 62 172 2.0 5.0 0.00 0.00 0.00 57 1004.6
20260509005224 62 215 3.0 5.0 0.00 0.00 0.00 56 1004.6
20260509004723 62 187 2.0 4.0 0.00 0.00 0.00 56 1004.6
20260509004222 63 221 3.0 5.0 0.00 0.00 0.00 56 1004.6
20260509003724 63 245 4.0 5.0 0.00 0.00 0.00 56 1004.9
20260509003220 63 195 1.0 5.0 0.00 0.00 0.00 55 1004.6
20260509002722 64 245 3.0 5.0 0.00 0.00 0.00 54 1004.6
20260509002221 64 256 5.0 9.0 0.00 0.00 0.00 53 1004.6
20260509001721 64 223 2.0 9.0 0.00 0.00 0.00 52 1004.9
20260509000718 64 198 3.0 6.0 0.00 0.00 0.00 51 1004.9
20260509000219 64 200 0.0 4.0 0.00 0.00 0.00 49 1004.9
20260508235719 64 173 1.0 3.0 0.00 0.00 0.00 50 1004.9
20260508235217 64 190 0.0 3.0 0.00 0.00 0.00 51 1004.9
20260508234717 64 231 0.0 3.0 0.00 0.00 0.00 50 1004.9
20260508234217 64 183 2.0 2.0 0.00 0.00 0.00 50 1004.9
20260508233715 65 205 0.0 4.0 0.00 0.00 0.00 49 1004.9
20260508233215 65 137 2.0 4.0 0.00 0.00 0.00 46 1005.2
20260508232935 65 218 0.0 3.0 0.00 0.00 0.00 45 1005.2
20260508232218 65 237 2.0 5.0 0.00 0.00 0.00 44 1005.2
20260508231713 65 168 2.0 5.0 0.00 0.00 0.00 44 1004.9
20260508231216 65 148 2.0 3.0 0.00 0.00 0.00 45 1005.2
20260508230714 65 180 1.0 3.0 0.00 0.00 0.00 47 1004.9
20260508230420 65 137 4.0 4.0 0.00 0.00 0.00 44 1005.2
20260508230311 65 150 0.0 4.0 0.00 0.00 0.00 45 1004.9
20260508225212 64 183 1.0 3.0 0.00 0.00 0.00 44 1005.2
20260508224713 64 201 1.0 3.0 0.00 0.00 0.00 47 1004.9
20260508224209 64 196 2.0 3.0 0.00 0.00 0.00 46 1005.2
20260508223710 64 208 2.0 3.0 0.00 0.00 0.00 48 1005.2
20260508223208 65 205 0.0 3.0 0.00 0.00 0.00 46 1005.2